Terug naar catalogus

STARLINK-32409

ActiefCommunicatieVLEO
NORAD 61591·PAYLOAD·🇺🇸 United States

Gelanceerd Oct 18, 2024 vanaf Cape Canaveral Space Force Station

Loading…

Volgende Passages (komende 24 uur)

TLE

VersSource: CelesTrak SupGP

Epoch: Sep 15, 2026, 02:18 UTC

1 61591C 24187T   26258.09631944 -.00025277  00000+0 -74666-3 0  2587
2 61591  53.1581 246.9108 0001297  91.6607 173.1423 15.34409323    11

Volg STARLINK-32409 in realtime met AllMySat

Download on the App Store